Visibility
15.0 10.2 13.7 15.0 15.0 15.0 15.0 15.0 15.0 15.0 15.0 15.0 15.0 15.0 15.0 15.0 15.0 15.0 15.0 15.0 9.1 10.7 15.0 15.0 15.0 15.0 15.0 15.0 15.0 15.0 15.0 15.0 15.0 13.9 14.5 14.9 5.9 2.7 3.2 13.2 10.0 15.0 0.1 14.2 14.6 0.2 5.2 15.0 15.0 4.3 0.0 0.1 3.5 3.1
12.9 15.0 15.0 15.0 15.0 15.0 15.0 15.0 15.0 15.0 15.0 15.0 15.0 15.0 15.0 15.0 15.0 15.0 9.5 15.0 15.0 15.0 15.0 15.0 15.0 15.0 15.0 15.0 15.0 15.0 10.2 15.0 15.0 5.2 12.1 14.7 9.2 15.0 0.9 0.3 15.0 2.3 9.7 0.7 14.0 0.2 2.5 13.8 0.4 0.2 14.5 2.5 1.4 1.1
15.0 15.0 15.0 15.0 15.0 15.0 15.0 15.0 15.0 15.0 15.0 14.9 15.0 15.0 15.0 15.0 15.0 15.0 9.8 15.0 15.0 15.0 15.0 15.0 15.0 15.0 15.0 15.0 15.0 15.0 12.9 15.0 15.0 15.0 15.0 7.3 0.1 15.0 0.5 2.8 1.6 14.5 15.0 10.0 0.6 1.9 15.0 9.4 5.6 0.7 0.9 1.0 1.4 0.2
15.0 15.0 15.0 15.0 15.0 15.0 12.6 15.0 15.0 14.7 15.0 13.6 15.0 15.0 15.0 15.0 15.0 15.0 15.0 15.0 15.0 15.0 14.6 6.0 15.0 15.0 15.0 15.0 15.0 15.0 15.0 15.0 15.0 15.0 15.0 12.3 0.1 15.0 4.8 0.5 15.0 14.2 12.8 12.2 2.1 8.6 9.0 15.0 1.2 0.2 0.2 0.4 0.6 0.2
15.0 15.0 15.0 15.0 15.0 15.0 15.0 15.0 15.0 13.0 15.0 15.0 15.0 15.0 15.0 15.0 15.0 15.0 9.9 14.6 14.3 11.2 5.2 15.0 15.0 15.0 15.0 15.0 15.0 15.0 15.0 14.5 15.0 15.0 15.0 1.8 0.1 6.6 14.8 13.1 7.4 9.1 1.8 0.5 0.3 0.2 12.7 0.5 0.1 0.5 1.2 0.4 0.5 0.9
15.0 15.0 15.0 15.0 15.0 15.0 15.0 15.0 15.0 15.0 15.0 15.0 15.0 15.0 15.0 15.0 15.0 7.3 0.3 14.9 15.0 15.0 14.7 15.0 11.2 15.0 15.0 15.0 15.0 15.0 15.0 15.0 15.0 15.0 15.0 15.0 14.5 14.9 4.0 0.7 1.0 13.6 0.2 1.4 2.6 14.1 4.2 0.3 1.3 14.8 3.2 1.3 5.2 13.7
15.0 15.0 15.0 15.0 15.0 13.9 14.6 14.5 15.0 15.0 15.0 15.0 15.0 15.0 15.0 15.0 10.1 1.3 0.3 2.4 15.0 15.0 4.6 7.5 12.6 13.9 15.0 15.0 15.0 15.0 15.0 15.0 15.0 15.0 15.0 15.0 14.5 15.0 0.1 0.1 2.0 1.2 0.0 0.0 0.1 9.1 0.1 0.7 1.6 15.0 15.0 15.0 15.0 15.0
15.0 15.0 15.0 15.0 15.0 11.8 14.1 15.0 15.0 15.0 15.0 15.0 15.0 15.0 15.0 10.7 15.0 6.7 10.6 15.0 15.0 15.0 14.1 12.6 15.0 9.7 15.0 15.0 11.9 15.0 15.0 15.0 15.0 15.0 15.0 15.0 7.6 6.4 0.2 0.1 0.2 0.3 0.3 1.5 8.8 15.0 15.0 15.0 15.0 15.0 15.0 15.0 15.0 15.0
15.0 15.0 15.0 15.0 15.0 14.8 15.0 15.0 15.0 15.0 15.0 15.0 15.0 12.4 11.5 11.4 0.4 0.6 14.0 15.0 14.4 8.2 3.0 10.5 10.7 0.0 15.0 13.6 10.2 14.4 15.0 15.0 15.0 15.0 15.0 15.0 6.1 0.6 0.1 0.2 0.2 0.3 0.2 0.8 15.0 15.0 15.0 15.0 15.0 15.0 15.0 15.0 15.0 15.0
15.0 15.0 15.0 15.0 15.0 15.0 15.0 15.0 15.0 15.0 15.0 14.9 8.6 0.1 0.0 1.6 9.2 15.0 7.7 0.0 9.7 14.5 15.0 13.8 15.0 15.0 7.3 13.6 10.1 7.4 12.1 15.0 4.6 15.0 15.0 14.6 1.7 15.0 3.3 0.3 1.1 15.0 15.0 15.0 15.0 15.0 15.0 15.0 15.0 15.0 15.0 15.0 15.0 15.0
13.6 15.0 15.0 15.0 15.0 15.0 15.0 14.8 15.0 15.0 10.7 7.6 0.0 0.0 0.4 8.3 3.3 0.1 0.0 0.0 9.2 12.2 14.9 15.0 15.0 15.0 11.2 13.6 8.3 12.6 12.1 8.2 14.4 7.2 5.2 1.3 2.9 15.0 15.0 15.0 15.0 15.0 15.0 15.0 15.0 15.0 15.0 15.0 15.0 15.0 15.0 15.0 15.0 15.0
15.0 15.0 15.0 15.0 15.0 15.0 15.0 15.0 15.0 14.8 9.0 0.1 4.1 10.9 4.1 0.0 0.0 0.0 4.8 12.0 8.3 12.2 15.0 15.0 15.0 15.0 6.6 14.3 15.0 15.0 13.2 12.3 6.6 6.0 5.6 0.8 1.9 15.0 15.0 15.0 15.0 15.0 15.0 15.0 15.0 15.0 15.0 15.0 15.0 15.0 15.0 15.0 15.0 15.0
15.0 12.4 14.9 15.0 15.0 15.0 15.0 15.0 15.0 15.0 9.6 5.7 0.1 0.0 0.0 0.0 0.1 6.6 3.7 14.2 15.0 15.0 8.2 15.0 15.0 15.0 15.0 13.9 5.0 13.7 15.0 6.2 13.3 2.4 7.1 1.7 15.0 15.0 15.0 15.0 15.0 15.0 15.0 15.0 15.0 15.0 15.0 15.0 15.0 15.0 15.0 15.0 15.0 15.0
15.0 15.0 9.5 15.0 15.0 14.8 15.0 15.0 15.0 15.0 0.1 0.0 0.0 0.0 0.0 1.4 13.2 15.0 14.9 0.3 13.4 15.0 15.0 15.0 15.0 15.0 15.0 0.9 15.0 1.7 5.1 13.5 3.1 4.0 0.2 13.3 15.0 15.0 15.0 15.0 15.0 14.7 15.0 12.0 6.7 15.0 10.7 7.0 8.4 15.0 15.0 15.0 15.0 15.0
15.0 13.8 13.1 14.6 15.0 15.0 15.0 15.0 15.0 6.5 0.0 0.0 0.0 2.4 15.0 6.3 0.2 0.0 0.0 6.1 13.7 15.0 15.0 15.0 10.4 11.3 14.2 4.9 9.3 14.7 3.1 6.6 8.5 2.7 1.7 14.8 15.0 15.0 15.0 7.9 5.8 5.9 15.0 8.9 11.8 9.7 11.2 15.0 15.0 15.0 15.0 15.0 15.0 15.0
13.8 7.2 12.0 15.0 14.7 15.0 15.0 14.1 2.7 0.7 0.0 0.0 0.0 0.2 0.0 1.3 0.0 0.0 0.0 15.0 10.0 15.0 15.0 12.0 8.7 6.8 0.5 3.6 0.8 10.9 4.0 6.1 0.2 1.5 0.7 5.4 15.0 13.9 2.0 15.0 12.0 14.1 10.7 7.2 15.0 15.0 15.0 15.0 15.0 15.0 15.0 15.0 15.0 15.0
15.0 6.9 15.0 15.0 15.0 15.0 15.0 0.0 0.0 0.0 0.0 0.0 0.4 0.0 0.0 0.0 0.0 0.0 0.0 2.2 15.0 15.0 0.0 12.3 8.2 15.0 0.6 12.4 9.8 15.0 1.0 0.6 2.2 0.8 2.1 14.0 4.3 1.8 11.4 9.7 10.9 5.2 12.7 13.7 15.0 15.0 15.0 15.0 15.0 15.0 9.3 15.0 15.0 15.0
15.0 15.0 15.0 15.0 14.9 0.1 0.0 0.0 0.0 0.0 0.3 0.1 12.9 11.5 14.1 0.0 0.0 0.0 2.8 15.0 15.0 15.0 15.0 8.3 13.8 6.8 5.3 0.2 0.9 11.9 12.7 2.0 12.6 2.0 3.1 3.7 4.3 14.9 14.9 9.2 12.6 12.7 10.3 15.0 15.0 15.0 15.0 15.0 14.8 6.8 15.0 15.0 15.0 15.0
15.0 11.9 12.0 14.8 9.2 0.0 0.0 0.0 0.0 0.1 0.6 15.0 12.3 15.0 12.8 0.1 6.8 6.9 1.4 6.5 15.0 15.0 15.0 15.0 6.8 14.4 8.7 15.0 15.0 14.8 7.2 13.2 1.2 0.6 0.7 13.4 15.0 8.5 9.5 8.3 15.0 15.0 15.0 15.0 15.0 15.0 15.0 15.0 7.3 15.0 15.0 15.0 15.0 15.0
15.0 13.6 10.0 14.3 15.0 0.1 0.0 0.0 6.0 13.9 15.0 15.0 14.9 15.0 8.7 15.0 15.0 0.0 0.4 15.0 15.0 15.0 15.0 15.0 3.0 11.9 11.2 15.0 15.0 15.0 15.0 15.0 13.0 1.9 0.8 1.9 9.0 14.8 11.6 14.7 15.0 15.0 15.0 15.0 14.8 13.0 15.0 15.0 15.0 15.0 15.0 15.0 15.0 15.0
14.2 15.0 7.1 6.2 0.2 0.0 6.2 15.0 15.0 15.0 15.0 6.8 15.0 15.0 14.5 15.0 10.4 15.0 14.4 15.0 15.0 15.0 15.0 15.0 14.9 15.0 15.0 15.0 15.0 15.0 15.0 15.0 15.0 15.0 14.8 2.1 10.3 15.0 15.0 15.0 15.0 15.0 15.0 15.0 15.0 15.0 15.0 15.0 15.0 15.0 15.0 15.0 15.0 15.0
0.0 1.8 0.0 2.0 0.0 0.0 11.2 15.0 15.0 15.0 15.0 15.0 14.7 15.0 15.0 5.6 14.2 10.6 15.0 6.1 8.4 14.8 15.0 15.0 15.0 15.0 15.0 15.0 15.0 15.0 15.0 15.0 15.0 15.0 15.0 15.0 7.7 15.0 9.0 15.0 15.0 11.9 7.0 11.3 15.0 15.0 15.0 15.0 15.0 15.0 15.0 12.8 15.0 15.0
2.9 4.2 0.0 0.0 0.1 0.1 0.3 15.0 15.0 15.0 15.0 4.3 15.0 14.9 10.4 10.4 14.5 15.0 15.0 15.0 14.6 15.0 15.0 15.0 15.0 15.0 15.0 15.0 15.0 15.0 15.0 15.0 15.0 15.0 15.0 15.0 15.0 15.0 15.0 15.0 7.7 15.0 15.0 15.0 15.0 15.0 15.0 15.0 15.0 15.0 15.0 15.0 15.0 15.0
3.1 0.0 0.1 0.2 0.2 0.1 1.1 3.9 15.0 15.0 15.0 15.0 13.6 15.0 14.2 13.7 15.0 15.0 14.9 15.0 6.6 15.0 15.0 15.0 15.0 15.0 15.0 15.0 15.0 15.0 15.0 15.0 15.0 15.0 13.3 15.0 12.5 14.1 15.0 15.0 15.0 15.0 15.0 15.0 15.0 15.0 15.0 15.0 12.7 15.0 15.0 15.0 15.0 15.0
0.1 0.1 0.1 0.1 7.1 8.2 14.7 15.0 11.2 15.0 12.0 15.0 13.8 15.0 6.5 15.0 14.9 15.0 15.0 1.9 15.0 14.8 14.8 15.0 15.0 15.0 15.0 15.0 15.0 15.0 15.0 15.0 15.0 8.7 15.0 15.0 15.0 15.0 15.0 15.0 15.0 15.0 15.0 15.0 15.0 15.0 15.0 15.0 15.0 15.0 15.0 15.0 15.0 15.0
0.1 0.4 0.2 13.0 6.8 15.0 15.0 15.0 15.0 15.0 15.0 15.0 15.0 15.0 15.0 14.4 12.5 15.0 14.4 0.3 11.9 4.1 5.9 12.1 15.0 15.0 14.0 15.0 15.0 15.0 15.0 15.0 15.0 15.0 15.0 15.0 15.0 15.0 15.0 15.0 15.0 15.0 15.0 15.0 15.0 15.0 15.0 15.0 15.0 15.0 15.0 15.0 12.5 15.0
10.8 5.6 15.0 14.3 15.0 15.0 15.0 15.0 15.0 15.0 15.0 15.0 11.1 10.2 7.5 4.9 11.9 1.3 12.4 0.9 0.4 10.0 15.0 15.0 15.0 15.0 15.0 15.0 15.0 15.0 15.0 15.0 15.0 15.0 15.0 15.0 15.0 15.0 15.0 15.0 8.7 5.6 15.0 15.0 15.0 15.0 15.0 15.0 15.0 15.0 15.0 15.0 15.0 15.0
13.9 3.8 9.7 12.9 15.0 15.0 7.3 14.5 15.0 14.9 15.0 15.0 15.0 8.9 13.8 3.2 0.5 0.5 1.9 12.3 0.4 15.0 2.1 13.3 15.0 15.0 15.0 15.0 13.3 15.0 15.0 15.0 15.0 15.0 15.0 15.0 15.0 15.0 15.0 15.0 15.0 15.0 15.0 15.0 15.0 15.0 15.0 15.0 15.0 15.0 15.0 15.0 15.0 15.0
11.9 14.9 15.0 0.8 15.0 15.0 15.0 15.0 12.4 15.0 15.0 3.0 0.3 2.3 1.4 4.2 1.6 1.1 2.9 0.7 0.3 2.2 0.3 0.3 0.1 6.6 15.0 15.0 15.0 15.0 12.0 15.0 15.0 15.0 15.0 12.8 7.9 4.9 15.0 15.0 15.0 15.0 15.0 15.0 15.0 15.0 15.0 15.0 15.0 15.0 15.0 15.0 15.0 15.0
5.6 11.9 13.6 7.5 15.0 3.5 1.0 1.4 0.9 13.3 15.0 15.0 15.0 15.0 9.9 2.4 8.4 10.8 12.1 11.4 3.2 0.6 1.0 2.0 1.3 13.1 8.9 9.8 0.4 0.1 0.4 9.5 15.0 15.0 15.0 15.0 11.1 15.0 15.0 15.0 15.0 15.0 15.0 15.0 15.0 15.0 15.0 15.0 15.0 13.5 1.2 8.4 15.0 15.0
15.0 15.0 12.8 9.5 1.0 0.6 1.8 3.8 12.7 10.3 10.1 9.5 0.9 11.7 7.2 1.6 2.6 10.2 0.7 0.2 0.1 0.3 2.0 0.5 0.2 1.3 1.0 0.7 2.8 3.5 1.0 4.3 15.0 15.0 15.0 15.0 15.0 12.4 15.0 15.0 15.0 15.0 15.0 15.0 15.0 15.0 15.0 15.0 15.0 15.0 15.0 15.0 15.0 15.0
5.7 14.3 14.9 3.3 1.0 1.5 3.1 0.3 0.8 1.1 2.7 1.8 1.6 11.2 2.9 0.5 1.2 1.4 15.0 0.8 0.5 0.5 0.2 0.4 0.3 0.1 0.1 0.2 0.7 7.8 15.0 15.0 15.0 15.0 15.0 15.0 14.7 15.0 15.0 15.0 15.0 15.0 15.0 15.0 15.0 15.0 15.0 15.0 15.0 15.0 15.0 15.0 15.0 13.2
4.0 6.1 14.9 13.2 1.3 1.0 4.2 1.9 2.6 2.4 3.2 1.7 3.2 2.2 0.3 0.2 0.5 0.7 1.0 1.9 0.1 0.4 0.1 0.2 0.6 0.4 0.3 2.1 9.0 7.5 5.4 2.5 14.3 15.0 15.0 15.0 15.0 15.0 15.0 15.0 15.0 15.0 15.0 15.0 15.0 15.0 15.0 15.0 15.0 15.0 14.8 7.2 9.0 12.5